星链-36370(STARLINK-36370)

基本信息
目录编号:
67937
目录名称:
STARLINK-36370
国际标识:
2026-037F
轨道中心:
EARTH
卫星名称:
星链-36370
卫星全名:
星链-36370(STARLINK-36370)
卫星状态:
在轨 (已飞行18 天)
发射日期:
2026-02-24 UTC
国别 :
美国 (US)
星等 :
--
轨道信息
数据来源 国际轨道数据
星历时间: 2026-03-14T13:56:50+0800
10小时前
查看轨道信息
半长轴: 6702.537km
偏心率: 0.0001411
轨道倾角: 42.998°
近地点辐角 295.468°
升交点赤经 170.600°
平近点角 64.605°
近地点: 323.454km
远地点: 325.346km
周期: 91.016分钟
每日圈数: 15.821366
详细信息
固有亮度:
5
最大亮度:
2.5
卫星平台:
Starlink V1.0
覆盖范围:
全球
运营商:
太空探索技术公司
运营商所在国:
美国
制造商(研发单位):
太空探索技术公司
制造商所在国:
美国
使用方式:
暂无
卫星简介
Starlink 计划是 SpaceX 推出的全球卫星互联网项目,通过发射低轨道卫星,为全球尤其是偏远地区提供高速、低延迟的互联网服务。自 2019 年起,Starlink 已部署数千颗卫星,旨在缩小全球数字鸿沟,推动互联网普及。该项目还为军事、航空等行业提供通信支持,带来广泛经济效益。
2D轨道图
3D轨道图
轨道高度分析图
轨道倾角分析图
轨道综合分析图
查看轨道综合分析图